| time (UTC) | temp F | wind direction | speed knots | gust knots | rain 1hr in | rain 24hr in | rain mn in | humidity % | barometer mb |
| 20260903113437 | 65 | 167 | 0.0 | 0.0 | 0.00 | 0.27 | 0.27 | 95 | 1015.8 |
| 20260903112932 | 65 | 167 | 0.0 | 0.0 | 0.00 | 0.27 | 0.27 | 95 | 1015.8 |
| 20260903112428 | 65 | 177 | 0.0 | 0.0 | 0.00 | 0.27 | 0.27 | 95 | 1015.8 |
| 20260903111927 | 65 | 130 | 0.0 | 0.0 | 0.00 | 0.27 | 0.27 | 95 | 1015.7 |
| 20260903111426 | 65 | 158 | 0.0 | 0.0 | 0.00 | 0.27 | 0.27 | 95 | 1015.6 |
| 20260903110923 | 66 | 164 | 0.0 | 0.0 | 0.00 | 0.27 | 0.27 | 95 | 1015.6 |
| 20260903110419 | 66 | 200 | 0.9 | 1.7 | 0.00 | 0.27 | 0.27 | 95 | 1015.5 |
| 20260903105914 | 66 | 133 | 0.0 | 0.0 | 0.00 | 0.27 | 0.27 | 95 | 1015.6 |
| 20260903105409 | 66 | 151 | 0.0 | 0.0 | 0.00 | 0.27 | 0.27 | 95 | 1015.6 |
| 20260903104908 | 65 | 161 | 0.0 | 0.0 | 0.00 | 0.27 | 0.27 | 95 | 1015.5 |
| 20260903104402 | 65 | 126 | 0.0 | 0.0 | 0.00 | 0.27 | 0.27 | 95 | 1015.6 |
| 20260903103900 | 65 | 139 | 0.0 | 0.0 | 0.00 | 0.27 | 0.27 | 95 | 1015.8 |
| 20260903103355 | 65 | 163 | 0.0 | 0.0 | 0.00 | 0.27 | 0.27 | 95 | 1015.6 |
| 20260903102851 | 65 | 168 | 0.0 | 0.0 | 0.00 | 0.27 | 0.27 | 95 | 1015.5 |
| 20260903102350 | 65 | 135 | 0.0 | 0.0 | 0.00 | 0.27 | 0.27 | 95 | 1015.7 |
| 20260903101845 | 65 | 139 | 0.0 | 0.0 | 0.00 | 0.27 | 0.27 | 95 | 1015.7 |
| 20260903101340 | 65 | 125 | 0.0 | 0.0 | 0.00 | 0.27 | 0.27 | 95 | 1015.5 |
| 20260903100835 | 65 | 137 | 0.0 | 0.9 | 0.00 | 0.27 | 0.27 | 95 | 1015.7 |
| 20260903100329 | 65 | 141 | 0.0 | 0.0 | 0.00 | 0.27 | 0.27 | 95 | 1015.8 |
| 20260903095821 | 65 | 141 | 0.0 | 0.0 | 0.00 | 0.27 | 0.27 | 95 | 1015.8 |
| 20260903095315 | 65 | 138 | 0.0 | 0.0 | 0.00 | 0.27 | 0.27 | 95 | 1015.8 |
| 20260903094811 | 65 | 104 | 0.0 | 0.0 | 0.00 | 0.27 | 0.27 | 95 | 1015.6 |
| 20260903094305 | 65 | 99 | 0.0 | 0.0 | 0.00 | 0.27 | 0.27 | 95 | 1015.6 |
| 20260903093801 | 65 | 137 | 0.0 | 0.0 | 0.00 | 0.27 | 0.27 | 95 | 1015.8 |
| 20260903093255 | 65 | 117 | 0.9 | 0.9 | 0.00 | 0.27 | 0.27 | 95 | 1015.5 |
| 20260903041526 | 67 | 193 | 0.9 | 0.9 | 0.19 | 0.02 | 0.02 | 95 | 1017.6 |
| 20260903041021 | 67 | 193 | 0.9 | 0.9 | 0.19 | 0.02 | 0.02 | 95 | 1017.6 |
| 20260903040520 | 67 | 101 | 0.9 | 0.9 | 0.24 | 0.01 | 0.01 | 95 | 1017.3 |
| 20260903040017 | 67 | 255 | 1.7 | 1.7 | 0.54 | 1.37 | 1.37 | 95 | 1017.6 |
| 20260903035512 | 68 | 209 | 2.6 | 5.2 | 0.42 | 1.33 | 1.33 | 95 | 1018.1 |
| 20260903035008 | 67 | 313 | 3.5 | 4.3 | 0.19 | 1.28 | 1.28 | 95 | 1018.9 |
| 20260903034508 | 67 | 248 | 3.5 | 5.2 | 0.07 | 1.26 | 1.26 | 95 | 1017.9 |
| 20260903034002 | 67 | 61 | 0.0 | 1.7 | 0.05 | 1.25 | 1.25 | 95 | 1016.7 |
| 20260903033458 | 67 | 92 | 0.9 | 1.7 | 0.07 | 1.24 | 1.24 | 95 | 1016.1 |
| 20260903032953 | 67 | 110 | 1.7 | 1.7 | 0.07 | 1.24 | 1.24 | 95 | 1015.8 |
| 20260903032448 | 66 | 113 | 2.6 | 4.3 | 0.05 | 1.23 | 1.23 | 95 | 1016.0 |
| 20260903031943 | 66 | 156 | 0.0 | 0.0 | 0.05 | 1.23 | 1.23 | 95 | 1016.4 |
| 20260903031442 | 66 | 74 | 0.0 | 0.0 | 0.07 | 1.22 | 1.22 | 95 | 1016.8 |
| 20260903030932 | 66 | 148 | 0.0 | 0.0 | 0.12 | 1.22 | 1.22 | 95 | 1016.8 |
| 20260903030429 | 66 | 48 | 0.9 | 1.7 | 0.05 | 1.21 | 1.21 | 95 | 1017.0 |
| 20260903025924 | 66 | 335 | 3.5 | 4.3 | 0.12 | 1.20 | 1.20 | 95 | 1017.1 |
| 20260903025419 | 66 | 333 | 0.9 | 2.6 | 0.19 | 1.20 | 1.20 | 95 | 1017.3 |
| 20260903024915 | 65 | 155 | 0.0 | 0.0 | 0.07 | 1.18 | 1.18 | 95 | 1017.9 |
| 20260903024408 | 65 | 161 | 0.0 | 0.0 | 0.05 | 1.17 | 1.17 | 95 | 1018.0 |
| 20260903023903 | 65 | 96 | 0.0 | 1.7 | 0.12 | 1.17 | 1.17 | 95 | 1017.8 |
| 20260903023359 | 65 | 148 | 0.9 | 1.7 | 0.19 | 1.16 | 1.16 | 95 | 1018.1 |
| 20260903022854 | 65 | 171 | 0.0 | 0.0 | 0.24 | 1.15 | 1.15 | 95 | 1018.2 |
| 20260903022353 | 65 | 147 | 0.0 | 0.0 | 0.19 | 1.13 | 1.13 | 95 | 1017.6 |
| 20260903021852 | 65 | 132 | 0.9 | 0.9 | 0.19 | 1.11 | 1.11 | 95 | 1017.4 |
| 20260903021348 | 65 | 147 | 0.0 | 0.0 | 0.12 | 1.09 | 1.09 | 95 | 1017.4 |
| 20260903020847 | 65 | 173 | 0.0 | 0.0 | 0.17 | 1.08 | 1.08 | 95 | 1017.6 |
| 20260903020343 | 65 | 129 | 0.0 | 0.0 | 0.38 | 1.07 | 1.07 | 95 | 1018.1 |
| 20260903015837 | 65 | 113 | 4.3 | 5.2 | 0.90 | 1.05 | 1.05 | 95 | 1018.5 |
| 20260903015332 | 65 | 163 | 0.9 | 1.7 | 2.15 | 1.00 | 1.00 | 95 | 1019.2 |
| 20260903014828 | 66 | 183 | 0.9 | 1.7 | 2.83 | 0.90 | 0.90 | 95 | 1020.1 |
| 20260903014322 | 68 | 353 | 5.2 | 13.0 | 1.09 | 0.61 | 0.61 | 95 | 1021.3 |
| 20260903013817 | 69 | 300 | 3.5 | 4.3 | 0.00 | 0.43 | 0.43 | 95 | 1018.9 |
| 20260903013316 | 69 | 133 | 0.0 | 0.9 | 0.00 | 0.43 | 0.43 | 95 | 1017.9 |
| 20260903012815 | 69 | 122 | 2.6 | 2.6 | 0.00 | 0.43 | 0.43 | 95 | 1017.5 |
| 20260903012309 | 69 | 157 | 0.0 | 0.0 | 0.00 | 0.43 | 0.43 | 95 | 1017.7 |
| 20260903011803 | 69 | 115 | 1.7 | 1.7 | 0.00 | 0.43 | 0.43 | 95 | 1017.7 |
| 20260903011303 | 69 | 122 | 0.9 | 0.9 | 0.00 | 0.43 | 0.43 | 95 | 1017.6 |
| 20260903010758 | 70 | 133 | 2.6 | 2.6 | 0.00 | 0.43 | 0.43 | 95 | 1017.9 |
| 20260903010254 | 70 | 129 | 0.9 | 1.7 | 0.00 | 0.43 | 0.43 | 95 | 1018.0 |
| 20260903005752 | 70 | 139 | 3.5 | 4.3 | 0.00 | 0.43 | 0.43 | 95 | 1017.4 |
| 20260903005247 | 70 | 144 | 1.7 | 1.7 | 0.05 | 0.43 | 0.43 | 95 | 1016.8 |
| 20260903004743 | 70 | 142 | 3.5 | 5.2 | 0.00 | 0.42 | 0.42 | 95 | 1016.8 |
| 20260903004238 | 70 | 110 | 4.3 | 7.8 | 0.00 | 0.42 | 0.42 | 95 | 1016.9 |
| 20260903003734 | 70 | 114 | 3.5 | 4.3 | 0.00 | 0.42 | 0.42 | 95 | 1016.7 |
| 20260903003229 | 70 | 103 | 2.6 | 4.3 | 0.00 | 0.42 | 0.42 | 95 | 1017.1 |
| 20260903002723 | 70 | 148 | 3.5 | 4.3 | 0.00 | 0.42 | 0.42 | 95 | 1016.9 |
| 20260903002218 | 70 | 132 | 4.3 | 6.1 | 0.00 | 0.42 | 0.42 | 95 | 1016.8 |
| 20260903001713 | 70 | 120 | 1.7 | 1.7 | 0.00 | 0.42 | 0.42 | 95 | 1017.1 |
| 20260903001207 | 70 | 155 | 2.6 | 2.6 | 0.00 | 0.42 | 0.42 | 95 | 1017.0 |
| 20260903000703 | 70 | 114 | 2.6 | 2.6 | 0.00 | 0.42 | 0.42 | 95 | 1016.9 |
| 20260903000204 | 70 | 126 | 1.7 | 1.7 | 0.00 | 0.42 | 0.42 | 95 | 1017.0 |
| 20260902235700 | 70 | 166 | 1.7 | 1.7 | 0.00 | 0.42 | 0.42 | 95 | 1017.2 |
| 20260902235156 | 70 | 203 | 4.3 | 5.2 | 0.00 | 0.42 | 0.42 | 95 | 1017.0 |
| 20260902234650 | 70 | 120 | 4.3 | 6.1 | 0.00 | 0.42 | 0.42 | 95 | 1016.5 |
| 20260902234149 | 70 | 137 | 2.6 | 4.3 | 0.00 | 0.42 | 0.42 | 95 | 1016.5 |
| 20260902233644 | 70 | 125 | 5.2 | 6.1 | 0.00 | 0.42 | 0.42 | 95 | 1016.8 |
| 20260902233143 | 70 | 139 | 4.3 | 6.1 | 0.00 | 0.42 | 0.42 | 95 | 1016.9 |
| 20260902232642 | 70 | 167 | 4.3 | 6.1 | 0.00 | 0.42 | 0.42 | 95 | 1017.0 |
| 20260902232141 | 70 | 149 | 1.7 | 2.6 | 0.00 | 0.42 | 0.42 | 95 | 1017.1 |
| 20260902231636 | 70 | 131 | 1.7 | 2.6 | 0.00 | 0.42 | 0.42 | 95 | 1017.3 |
| 20260902231131 | 70 | 151 | 2.6 | 2.6 | 0.00 | 0.42 | 0.42 | 95 | 1017.1 |
| 20260902230626 | 70 | 130 | 0.9 | 1.7 | 0.00 | 0.42 | 0.42 | 95 | 1017.4 |
| 20260902230125 | 70 | 140 | 2.6 | 4.3 | 0.00 | 0.42 | 0.42 | 95 | 1017.0 |
| 20260902225620 | 70 | 162 | 2.6 | 4.3 | 0.00 | 0.42 | 0.42 | 95 | 1016.7 |
| 20260902225119 | 70 | 118 | 4.3 | 6.1 | 0.00 | 0.42 | 0.42 | 95 | 1016.7 |
| 20260902224618 | 70 | 114 | 2.6 | 2.6 | 0.00 | 0.42 | 0.42 | 95 | 1016.8 |
| 20260902224114 | 71 | 115 | 3.5 | 7.0 | 0.00 | 0.42 | 0.42 | 95 | 1016.9 |
| 20260902223611 | 71 | 109 | 9.6 | 11.3 | 0.00 | 0.42 | 0.42 | 95 | 1016.7 |
| 20260902223109 | 71 | 169 | 4.3 | 7.0 | 0.00 | 0.42 | 0.42 | 95 | 1016.9 |
| 20260902222608 | 71 | 128 | 5.2 | 7.8 | 0.00 | 0.42 | 0.42 | 95 | 1016.8 |
| 20260902222107 | 71 | 121 | 3.5 | 5.2 | 0.00 | 0.42 | 0.42 | 95 | 1016.7 |
| 20260902221601 | 71 | 121 | 4.3 | 7.0 | 0.00 | 0.42 | 0.42 | 95 | 1017.0 |
| 20260902221056 | 71 | 131 | 4.3 | 6.1 | 0.00 | 0.42 | 0.42 | 95 | 1017.0 |
| 20260902220552 | 71 | 64 | 5.2 | 7.0 | 0.00 | 0.42 | 0.42 | 95 | 1017.4 |
| 20260902220046 | 71 | 128 | 4.3 | 5.2 | 0.00 | 0.42 | 0.42 | 95 | 1017.2 |
| 20260902215543 | 71 | 108 | 2.6 | 5.2 | 0.00 | 0.42 | 0.42 | 95 | 1017.5 |
| 20260902215037 | 71 | 126 | 3.5 | 5.2 | 0.00 | 0.42 | 0.42 | 95 | 1017.6 |
| 20260902214532 | 71 | 115 | 3.5 | 5.2 | 0.00 | 0.42 | 0.42 | 95 | 1017.4 |
| 20260902214031 | 71 | 116 | 5.2 | 6.1 | 0.00 | 0.42 | 0.42 | 95 | 1017.5 |
| 20260902213527 | 71 | 136 | 3.5 | 4.3 | 0.00 | 0.42 | 0.42 | 95 | 1017.6 |
| 20260902213026 | 71 | 114 | 3.5 | 5.2 | 0.00 | 0.42 | 0.42 | 95 | 1017.7 |
| 20260902212522 | 71 | 115 | 3.5 | 5.2 | 0.00 | 0.42 | 0.42 | 95 | 1017.6 |
| 20260902212018 | 71 | 109 | 3.5 | 4.3 | 0.00 | 0.42 | 0.42 | 95 | 1017.4 |
| 20260902211514 | 71 | 129 | 2.6 | 2.6 | 0.00 | 0.42 | 0.42 | 95 | 1017.6 |
| 20260902211008 | 71 | 181 | 1.7 | 1.7 | 0.00 | 0.42 | 0.42 | 95 | 1017.7 |
| 20260902210503 | 71 | 100 | 3.5 | 4.3 | 0.00 | 0.42 | 0.42 | 95 | 1017.7 |
| 20260902210001 | 71 | 110 | 2.6 | 2.6 | 0.00 | 0.42 | 0.42 | 95 | 1017.6 |
| 20260902205456 | 71 | 167 | 0.9 | 0.9 | 0.00 | 0.42 | 0.42 | 95 | 1017.6 |
| 20260902204952 | 71 | 121 | 2.6 | 2.6 | 0.00 | 0.42 | 0.42 | 95 | 1017.5 |
| 20260902204451 | 71 | 115 | 1.7 | 2.6 | 0.00 | 0.42 | 0.42 | 95 | 1017.7 |
| 20260902203947 | 71 | 118 | 2.6 | 2.6 | 0.00 | 0.42 | 0.42 | 95 | 1017.5 |
| 20260902203443 | 71 | 119 | 5.2 | 6.1 | 0.00 | 0.42 | 0.42 | 95 | 1017.4 |
| 20260902202941 | 71 | 142 | 5.2 | 7.0 | 0.00 | 0.42 | 0.42 | 95 | 1017.5 |
| 20260902202437 | 71 | 144 | 2.6 | 2.6 | 0.00 | 0.42 | 0.42 | 95 | 1017.3 |
| 20260902201934 | 71 | 121 | 6.1 | 7.0 | 0.00 | 0.42 | 0.42 | 95 | 1017.4 |
| 20260902201429 | 71 | 122 | 6.1 | 7.0 | 0.00 | 0.42 | 0.42 | 95 | 1017.8 |
| 20260902200929 | 71 | 134 | 2.6 | 4.3 | 0.00 | 0.42 | 0.42 | 95 | 1017.7 |
| 20260902200424 | 71 | 113 | 1.7 | 2.6 | 0.00 | 0.42 | 0.42 | 95 | 1017.8 |
| 20260902195919 | 71 | 124 | 2.6 | 4.3 | 0.00 | 0.42 | 0.42 | 95 | 1017.8 |
| 20260902195414 | 71 | 169 | 6.1 | 7.0 | 0.00 | 0.42 | 0.42 | 95 | 1017.8 |
| 20260902194909 | 71 | 101 | 4.3 | 6.1 | 0.00 | 0.42 | 0.42 | 95 | 1017.7 |
| 20260902194408 | 71 | 131 | 2.6 | 2.6 | 0.00 | 0.42 | 0.42 | 95 | 1018.1 |
| 20260902193903 | 71 | 132 | 2.6 | 2.6 | 0.00 | 0.42 | 0.42 | 95 | 1018.3 |
| 20260902193359 | 71 | 101 | 2.6 | 4.3 | 0.00 | 0.42 | 0.42 | 95 | 1018.2 |
| 20260902192858 | 71 | 127 | 3.5 | 5.2 | 0.00 | 0.42 | 0.42 | 95 | 1018.4 |
| 20260902192357 | 71 | 124 | 2.6 | 2.6 | 0.00 | 0.42 | 0.42 | 95 | 1018.2 |
| 20260902191851 | 71 | 167 | 3.5 | 4.3 | 0.00 | 0.42 | 0.42 | 95 | 1018.2 |
| 20260902191346 | 70 | 114 | 3.5 | 6.1 | 0.00 | 0.42 | 0.42 | 95 | 1018.4 |
| 20260902190836 | 70 | 130 | 2.6 | 2.6 | 0.00 | 0.42 | 0.42 | 95 | 1018.5 |
| 20260902190335 | 70 | 130 | 3.5 | 4.3 | 0.00 | 0.42 | 0.42 | 95 | 1018.4 |
| 20260902185832 | 70 | 111 | 4.3 | 5.2 | 0.00 | 0.42 | 0.42 | 95 | 1018.5 |
| 20260902185327 | 70 | 151 | 1.7 | 1.7 | 0.00 | 0.42 | 0.42 | 95 | 1018.3 |
| 20260902184823 | 70 | 120 | 5.2 | 7.0 | 0.00 | 0.42 | 0.42 | 95 | 1018.4 |
| 20260902184318 | 70 | 167 | 2.6 | 4.3 | 0.00 | 0.42 | 0.42 | 95 | 1018.6 |
| 20260902183813 | 70 | 92 | 5.2 | 7.0 | 0.00 | 0.42 | 0.42 | 95 | 1018.4 |
| 20260902183309 | 70 | 123 | 5.2 | 6.1 | 0.00 | 0.42 | 0.42 | 95 | 1018.4 |
| 20260902182805 | 70 | 152 | 4.3 | 7.0 | 0.00 | 0.42 | 0.42 | 95 | 1018.3 |
| 20260902182305 | 71 | 103 | 4.3 | 7.0 | 0.00 | 0.42 | 0.42 | 95 | 1018.7 |
| 20260902181757 | 71 | 186 | 3.5 | 4.3 | 0.00 | 0.42 | 0.42 | 95 | 1018.4 |
| 20260902181252 | 71 | 114 | 2.6 | 5.2 | 0.00 | 0.42 | 0.42 | 95 | 1018.4 |
| 20260902180747 | 71 | 109 | 7.0 | 7.8 | 0.00 | 0.42 | 0.42 | 95 | 1018.7 |
| 20260902180242 | 71 | 165 | 3.5 | 4.3 | 0.00 | 0.42 | 0.42 | 95 | 1018.9 |
| 20260902175737 | 71 | 109 | 1.7 | 2.6 | 0.00 | 0.42 | 0.42 | 95 | 1018.9 |
| 20260902175233 | 71 | 114 | 4.3 | 6.1 | 0.00 | 0.42 | 0.42 | 95 | 1018.9 |
| 20260902174729 | 70 | 101 | 3.5 | 5.2 | 0.00 | 0.42 | 0.42 | 95 | 1019.0 |
| 20260902174224 | 70 | 137 | 6.1 | 8.7 | 0.00 | 0.42 | 0.42 | 95 | 1019.1 |
| 20260902173719 | 69 | 116 | 1.7 | 2.6 | 0.00 | 0.42 | 0.42 | 95 | 1019.1 |
| 20260902173214 | 69 | 91 | 2.6 | 4.3 | 0.00 | 0.42 | 0.42 | 95 | 1019.2 |
| 20260902172709 | 69 | 119 | 4.3 | 4.3 | 0.00 | 0.42 | 0.42 | 95 | 1019.3 |
| 20260902172208 | 69 | 125 | 6.1 | 8.7 | 0.00 | 0.42 | 0.42 | 95 | 1019.4 |
| 20260902171703 | 69 | 165 | 7.8 | 11.3 | 0.00 | 0.42 | 0.42 | 95 | 1019.4 |
| 20260902171159 | 69 | 73 | 3.5 | 5.2 | 0.00 | 0.42 | 0.42 | 95 | 1019.7 |
| 20260902170655 | 69 | 125 | 4.3 | 7.8 | 0.00 | 0.42 | 0.42 | 95 | 1019.4 |
| 20260902170149 | 69 | 97 | 4.3 | 7.0 | 0.00 | 0.42 | 0.42 | 95 | 1019.6 |
| 20260902165644 | 68 | 135 | 4.3 | 6.1 | 0.00 | 0.42 | 0.42 | 95 | 1019.4 |
| 20260902165138 | 69 | 139 | 2.6 | 2.6 | 0.00 | 0.42 | 0.42 | 95 | 1019.5 |
| 20260902164634 | 68 | 125 | 5.2 | 7.0 | 0.00 | 0.42 | 0.42 | 95 | 1019.3 |
| 20260902164133 | 69 | 166 | 3.5 | 4.3 | 0.00 | 0.42 | 0.42 | 95 | 1019.5 |
| 20260902163628 | 69 | 106 | 4.3 | 5.2 | 0.00 | 0.42 | 0.42 | 95 | 1019.8 |
| 20260902163127 | 69 | 121 | 3.5 | 4.3 | 0.00 | 0.42 | 0.42 | 95 | 1019.7 |
| 20260902162626 | 69 | 116 | 6.1 | 7.8 | 0.00 | 0.42 | 0.42 | 95 | 1020.1 |
| 20260902162121 | 69 | 122 | 3.5 | 4.3 | 0.00 | 0.42 | 0.42 | 95 | 1020.2 |
| 20260902161616 | 69 | 111 | 1.7 | 1.7 | 0.00 | 0.42 | 0.42 | 95 | 1020.1 |
| 20260902161112 | 69 | 129 | 0.9 | 1.7 | 0.00 | 0.42 | 0.42 | 95 | 1019.7 |
| 20260902160609 | 69 | 120 | 0.0 | 0.9 | 0.00 | 0.42 | 0.42 | 95 | 1019.7 |
| 20260902160103 | 69 | 122 | 0.0 | 0.0 | 0.00 | 0.42 | 0.42 | 95 | 1019.2 |
| 20260902155602 | 69 | 74 | 0.9 | 1.7 | 0.00 | 0.42 | 0.42 | 95 | 1019.5 |
| 20260902155100 | 70 | 119 | 4.3 | 5.2 | 0.07 | 0.42 | 0.42 | 95 | 1019.3 |
| 20260902154556 | 69 | 109 | 7.8 | 9.6 | 0.12 | 0.42 | 0.42 | 95 | 1019.1 |
| 20260902154050 | 69 | 88 | 1.7 | 4.3 | 0.24 | 0.41 | 0.41 | 95 | 1019.3 |
| 20260902153549 | 70 | 91 | 0.0 | 0.9 | 0.19 | 0.39 | 0.39 | 95 | 1019.5 |
| 20260902153045 | 70 | 44 | 0.9 | 1.7 | 0.07 | 0.37 | 0.37 | 95 | 1019.7 |
| 20260902152541 | 70 | 96 | 0.9 | 1.7 | 0.12 | 0.36 | 0.36 | 95 | 1019.8 |
| 20260902152036 | 70 | 123 | 1.7 | 1.7 | 0.19 | 0.35 | 0.35 | 95 | 1019.6 |
| 20260902151532 | 70 | 137 | 0.0 | 0.0 | 0.24 | 0.34 | 0.34 | 95 | 1019.6 |
| 20260902151031 | 70 | 146 | 0.0 | 0.0 | 0.35 | 0.32 | 0.32 | 95 | 1019.6 |
| 20260902150527 | 70 | 302 | 1.7 | 1.7 | 0.35 | 0.30 | 0.30 | 95 | 1019.4 |
| 20260902150022 | 70 | 157 | 0.0 | 0.0 | 0.12 | 0.25 | 0.25 | 95 | 1019.0 |
| 20260902145517 | 70 | 159 | 0.0 | 0.0 | 0.12 | 0.24 | 0.24 | 95 | 1019.1 |
| 20260902145017 | 70 | 107 | 0.9 | 0.9 | 0.24 | 0.23 | 0.23 | 95 | 1018.8 |
| 20260902144513 | 70 | 88 | 0.0 | 0.9 | 0.66 | 0.22 | 0.22 | 95 | 1018.4 |
| 20260902144008 | 70 | 120 | 5.2 | 7.0 | 0.66 | 0.19 | 0.19 | 95 | 1018.6 |
| 20260902143503 | 71 | 174 | 2.6 | 5.2 | 0.24 | 0.11 | 0.11 | 95 | 1019.5 |
| 20260902142958 | 71 | 155 | 2.6 | 2.6 | 0.12 | 0.08 | 0.08 | 95 | 1018.9 |
| 20260902142454 | 71 | 169 | 0.9 | 0.9 | 0.07 | 0.07 | 0.07 | 95 | 1018.8 |
| 20260902141949 | 71 | 115 | 0.9 | 1.7 | 0.12 | 0.06 | 0.06 | 95 | 1018.8 |
| 20260902141443 | 71 | 124 | 2.6 | 2.6 | 0.12 | 0.05 | 0.05 | 95 | 1018.7 |
| 20260902140938 | 72 | 151 | 0.0 | 0.0 | 0.24 | 0.04 | 0.04 | 95 | 1018.9 |
| 20260902140433 | 72 | 145 | 1.7 | 1.7 | 0.19 | 0.03 | 0.03 | 95 | 1019.2 |
| 20260902135932 | 72 | 131 | 0.9 | 1.7 | 0.00 | 0.00 | 0.00 | 95 | 1019.2 |
| 20260902135428 | 72 | 137 | 2.6 | 2.6 | 0.00 | 0.00 | 0.00 | 95 | 1019.4 |
| 20260902134927 | 72 | 149 | 0.0 | 0.9 | 0.00 | 0.00 | 0.00 | 95 | 1019.5 |
| 20260902134423 | 72 | 95 | 2.6 | 2.6 | 0.00 | 0.00 | 0.00 | 95 | 1019.6 |
| 20260902133918 | 72 | 135 | 1.7 | 1.7 | 0.00 | 0.00 | 0.00 | 95 | 1019.5 |
| 20260902133413 | 72 | 126 | 1.7 | 2.6 | 0.00 | 0.00 | 0.00 | 95 | 1019.5 |
| 20260902132908 | 72 | 182 | 0.9 | 1.7 | 0.00 | 0.00 | 0.00 | 95 | 1019.4 |
| 20260902132403 | 72 | 162 | 3.5 | 5.2 | 0.00 | 0.00 | 0.00 | 95 | 1018.8 |
| 20260902131858 | 72 | 122 | 1.7 | 1.7 | 0.00 | 0.00 | 0.00 | 95 | 1018.6 |
| 20260902131355 | 72 | 110 | 1.7 | 2.6 | 0.00 | 0.00 | 0.00 | 95 | 1018.9 |
| 20260902130854 | 71 | 102 | 2.6 | 2.6 | 0.00 | 0.00 | 0.00 | 95 | 1019.0 |
| 20260902130350 | 71 | 130 | 0.0 | 0.0 | 0.00 | 0.00 | 0.00 | 95 | 1018.9 |
| 20260902125844 | 71 | 148 | 0.0 | 0.0 | 0.00 | 0.00 | 0.00 | 95 | 1019.0 |
| 20260902125340 | 71 | 127 | 1.7 | 1.7 | 0.00 | 0.00 | 0.00 | 95 | 1018.9 |